Location: Tamazert
(32.6352°N, 5.2072°W)
Time: 14:57:30
(UTC+00:00)

Altair - Visible Passes

Search period start: 03 October 2022 00:00
Search period end: 13 October 2022 00:00
Orbit: 1501 x 1682 km, 47.2° (Epoch: 03 October)

Date Brightness Start Highest point End Pass type
(mag) Time Alt. Az. Time Alt. Az. Time Alt. Az.
03 Oct 8.9 02:33:46 24° SE 02:33:57 24° SE 02:41:10 10° ENE visible
03 Oct 7.5 04:31:50 28° SW 04:37:44 87° SE 04:47:46 10° NE visible
04 Oct 9.2 02:10:29 20° ESE 02:10:29 20° ESE 02:15:32 10° E visible
04 Oct 7.5 04:08:33 42° SW 04:12:32 81° SE 04:22:31 10° NE visible
05 Oct 9.4 01:47:09 15° E 01:47:09 15° E 01:49:49 10° E visible
05 Oct 7.5 03:45:12 58° SSW 03:47:21 75° SE 03:57:15 10° NE visible
05 Oct 8.1 05:43:33 10° W 05:52:47 46° NNW 06:02:22 10° NE visible
06 Oct 9.7 01:23:43 10° E 01:23:43 10° E 01:23:56 10° E visible
06 Oct 7.5 03:21:46 69° SSE 03:22:11 70° SE 03:31:58 10° NE visible
06 Oct 8.0 05:19:49 16° W 05:27:27 48° NNW 05:37:05 10° NE visible
07 Oct 7.8 02:58:17 59° ESE 02:58:17 59° ESE 03:06:41 10° ENE visible
07 Oct 7.9 04:56:19 25° W 05:02:08 51° NNW 05:11:48 10° NE visible
08 Oct 8.2 02:34:44 44° E 02:34:44 44° E 02:41:24 10° ENE visible
08 Oct 7.8 04:32:47 35° W 04:36:50 53° NNW 04:46:32 10° NE visible
09 Oct 8.7 02:11:09 32° ENE 02:11:09 32° ENE 02:16:06 10° ENE visible
09 Oct 7.7 04:09:11 47° WNW 04:11:33 56° NNW 04:21:18 10° NE visible
10 Oct 9.1 01:47:31 23° ENE 01:47:31 23° ENE 01:50:47 10° ENE visible
10 Oct 7.5 03:45:32 59° NW 03:46:16 60° NNW 03:56:03 10° NE visible
10 Oct 8.5 05:44:12 10° WNW 05:52:54 35° N 06:01:52 10° ENE visible
11 Oct 9.5 01:23:50 16° ENE 01:23:50 16° ENE 01:25:27 10° ENE visible
11 Oct 7.6 03:21:52 61° N 03:21:52 61° N 03:30:48 10° NE visible
11 Oct 8.5 05:19:54 14° WNW 05:27:30 35° N 05:36:29 10° ENE visible
12 Oct 8.0 02:58:10 53° NNE 02:58:10 53° NNE 03:05:34 10° NE visible
12 Oct 8.4 04:56:11 20° WNW 05:02:07 36° N 05:11:06 10° NE visible
